Location: Santiago
(33.4378°S, 70.6505°W)
Time: 20:25:01
(UTC+00:00)

ISS - Pass Details

Date: 14 June 2025
Orbit: 415 x 417 km, 51.6° (Epoch: 22 June)

Event Time Altitude Azimuth Distance (km) Brightness Sun altitude
Rises 21:55:14 0° 329° (NNW) 2,347 1.1 -3.4°
Reaches altitude 10° 21:57:23 10° 336° (NNW) 1,491 -0.1 -3.8°
Maximum altitude 22:00:34 42° 48° (NE) 616 -3.1 -4.4°
Drops below altitude 10° 22:03:47 10° 120° (ESE) 1,509 -1.6 -5.0°
Enters shadow 22:04:32 - 123° (ESE) 1,805 -1.2 -5.1°
